Location: D�rnast
(49.6426°N, 11.9755°E)
Time: 20:28:19
(UTC+00:00)

Okean-O - Pass Details

Date: 24 January 2021
Orbit: 638 x 641 km, 98.2° (Epoch: 02 March)

Event Time Altitude Azimuth Distance (km) Brightness Sun altitude
Rises 18:03:51 0° 175° (S) 2,935 6.0 -20.7°
Reaches altitude 10° 18:06:04 10° 179° (S) 2,030 5.2 -21.1°
Maximum altitude 18:10:26 58° 259° (W) 754 3.2 -21.8°
Drops below altitude 10° 18:14:50 10° 339° (NNW) 2,046 5.4 -22.5°
Sets 18:17:05 0° 343° (NNW) 2,961 6.2 -22.8°
